{"data":{"norad_id":64090,"epoch":"2026-05-25T04:32:16.162080Z","epoch_age_seconds":58401,"freshness":"FRESH","line1":"1 64090U 25108D   26145.18907595  .00004954  00000+0  24246-3 0  9999","line2":"2 64090  97.4692 221.0928 0013910  86.8356 273.4469 15.18561867 55870","mean_motion":15.18561867,"eccentricity":0.001391,"inclination_deg":97.4692,"raan_deg":221.0928,"arg_perigee_deg":86.8356,"mean_anomaly_deg":273.4469,"bstar":0.00024246,"rev_number":5587,"period_min":94.826561320468,"perigee_km":500.6045209654,"apogee_km":519.76783604801,"semimajor_km":6888.3231785067,"source":"CELESTRAK","updated_at":"2026-05-25T13:38:04.235664Z"}}